Total_Precipitation_Accumulation
0.06 0.09 0.12 0.15 0.17 0.17 0.19 0.23 0.29 0.32 0.34 0.42 0.53 0.62 0.72 0.90 1.10 1.16 1.21 1.34 1.36 1.38 1.50 1.59 1.59 1.49 1.36 1.34 1.47 1.72 1.56 1.17 0.96 0.88 0.67 0.44 0.27 0.21 0.13 0.08 0.05 0.05 0.07
0.04 0.05 0.07 0.10 0.11 0.10 0.12 0.17 0.26 0.35 0.41 0.47 0.62 0.77 0.99 1.11 1.25 1.40 1.39 1.40 1.45 1.47 1.53 1.72 1.81 1.72 1.66 1.71 1.66 1.77 1.84 1.58 1.29 1.17 1.18 0.89 0.63 0.33 0.15 0.12 0.08 0.06 0.08
0.04 0.04 0.04 0.06 0.09 0.08 0.10 0.17 0.31 0.50 0.70 0.82 1.05 1.33 1.58 1.66 1.58 1.57 1.61 1.59 1.62 1.67 1.63 1.73 1.91 1.85 1.78 1.77 1.88 2.03 2.19 2.06 1.79 1.51 1.47 1.16 0.93 0.80 0.37 0.18 0.14 0.11 0.10
0.09 0.07 0.08 0.08 0.09 0.12 0.20 0.36 0.61 0.91 1.16 1.32 1.51 1.72 1.83 1.87 1.79 1.81 1.79 1.77 1.68 1.60 1.58 1.69 1.89 2.02 2.08 2.09 2.13 2.07 2.25 2.35 2.12 1.99 1.62 1.30 1.09 1.09 0.86 0.48 0.27 0.21 0.17
0.18 0.19 0.21 0.22 0.28 0.39 0.57 0.86 1.12 1.37 1.52 1.58 1.68 1.88 2.03 2.19 2.20 2.08 1.93 1.81 1.76 1.68 1.59 1.63 1.70 1.74 1.81 1.91 2.04 2.06 2.19 2.24 2.28 2.22 2.02 1.75 1.48 1.05 0.94 0.88 0.64 0.43 0.23
0.29 0.35 0.45 0.55 0.70 0.82 1.00 1.20 1.35 1.50 1.51 1.52 1.58 1.71 1.90 2.06 2.08 2.09 2.05 1.92 1.76 1.66 1.57 1.51 1.60 1.62 1.62 1.74 1.84 1.91 2.07 2.17 2.24 2.24 2.08 1.88 1.72 1.45 1.18 0.98 0.88 0.78 0.50
0.41 0.57 0.72 0.86 0.98 1.09 1.19 1.22 1.22 1.27 1.30 1.32 1.36 1.44 1.50 1.53 1.59 1.70 1.62 1.48 1.35 1.30 1.30 1.23 1.27 1.39 1.44 1.61 1.68 1.61 1.64 1.78 1.91 2.02 2.02 1.93 1.78 1.70 1.56 1.38 1.16 0.96 0.67
0.68 0.77 0.88 0.97 1.01 1.14 1.20 1.16 1.13 1.12 1.06 1.00 1.05 1.07 1.11 1.17 1.20 1.22 1.17 1.09 1.04 1.00 0.96 0.96 0.96 1.02 1.10 1.30 1.50 1.48 1.49 1.55 1.61 1.67 1.85 1.89 1.80 1.78 1.56 1.40 1.34 1.14 0.90
0.94 1.08 1.08 0.99 0.90 0.94 1.02 1.01 0.97 0.92 0.84 0.78 0.82 0.85 0.92 0.94 0.93 0.91 0.86 0.84 0.78 0.78 0.75 0.77 0.85 0.89 0.89 0.97 1.08 1.27 1.36 1.41 1.47 1.49 1.59 1.61 1.64 1.60 1.47 1.42 1.31 1.16 0.96
1.00 1.24 1.38 1.27 1.00 0.80 0.82 0.79 0.76 0.80 0.79 0.75 0.77 0.77 0.70 0.64 0.66 0.69 0.63 0.62 0.66 0.69 0.69 0.66 0.67 0.71 0.72 0.82 0.91 0.96 1.08 1.16 1.30 1.44 1.54 1.54 1.54 1.54 1.45 1.39 1.37 1.23 0.99
1.17 1.31 1.36 1.23 1.05 0.78 0.69 0.68 0.66 0.70 0.76 0.70 0.72 0.71 0.61 0.49 0.47 0.47 0.45 0.44 0.48 0.54 0.54 0.57 0.62 0.61 0.62 0.63 0.63 0.68 0.74 0.81 0.91 0.97 1.07 1.25 1.43 1.44 1.43 1.44 1.43 1.36 1.19
0.83 0.85 0.96 0.97 0.91 0.78 0.71 0.75 0.80 0.79 0.71 0.65 0.62 0.58 0.51 0.44 0.43 0.41 0.38 0.39 0.44 0.46 0.47 0.52 0.57 0.56 0.61 0.63 0.62 0.60 0.60 0.67 0.76 0.79 0.79 0.89 1.10 1.21 1.28 1.33 1.34 1.35 1.31
0.60 0.53 0.64 0.78 0.73 0.66 0.70 0.77 0.91 0.91 0.82 0.70 0.60 0.56 0.52 0.49 0.47 0.42 0.41 0.41 0.47 0.57 0.60 0.60 0.63 0.60 0.62 0.62 0.63 0.64 0.62 0.63 0.69 0.74 0.76 0.81 0.90 1.02 1.08 1.17 1.24 1.30 1.36
0.47 0.41 0.40 0.42 0.41 0.44 0.47 0.59 0.84 1.03 1.01 0.90 0.77 0.68 0.61 0.54 0.48 0.44 0.43 0.42 0.45 0.51 0.53 0.61 0.69 0.76 0.80 0.80 0.76 0.73 0.69 0.64 0.67 0.73 0.79 0.79 0.79 0.89 1.09 1.21 1.25 1.26 1.30
0.28 0.24 0.20 0.20 0.22 0.27 0.34 0.45 0.72 0.91 0.93 0.92 0.80 0.66 0.55 0.45 0.43 0.46 0.49 0.46 0.41 0.43 0.44 0.52 0.60 0.70 0.78 0.83 0.82 0.68 0.58 0.59 0.64 0.64 0.64 0.72 0.79 0.80 0.92 1.07 1.26 1.26 1.29
0.18 0.18 0.16 0.14 0.11 0.11 0.16 0.27 0.46 0.62 0.68 0.74 0.70 0.54 0.48 0.43 0.39 0.42 0.48 0.49 0.39 0.37 0.39 0.43 0.41 0.44 0.48 0.62 0.61 0.50 0.42 0.47 0.57 0.64 0.67 0.66 0.66 0.67 0.70 0.72 0.92 1.09 1.18
0.22 0.22 0.22 0.19 0.17 0.14 0.14 0.17 0.24 0.33 0.40 0.44 0.45 0.36 0.34 0.41 0.42 0.45 0.44 0.38 0.31 0.34 0.35 0.31 0.27 0.28 0.32 0.36 0.34 0.39 0.43 0.46 0.50 0.59 0.68 0.72 0.69 0.73 0.82 0.76 0.77 0.83 0.88
0.28 0.24 0.20 0.18 0.15 0.12 0.12 0.13 0.15 0.18 0.20 0.20 0.17 0.14 0.21 0.30 0.32 0.30 0.28 0.23 0.23 0.28 0.36 0.31 0.29 0.32 0.28 0.30 0.34 0.37 0.40 0.54 0.60 0.60 0.60 0.71 0.75 0.80 0.94 0.92 0.97 0.88 0.78
0.12 0.08 0.05 0.04 0.03 0.03 0.03 0.03 0.02 0.02 0.02 0.02 0.02 0.04 0.05 0.06 0.06 0.06 0.07 0.11 0.15 0.19 0.18 0.22 0.37 0.37 0.32 0.40 0.37 0.32 0.39 0.52 0.59 0.56 0.59 0.70 0.78 0.91 1.01 1.06 1.05 0.94 0.84
0.01 0.00 0.00 0.00 0.00 0.00 0.00 0.00 0.00 0.00 0.00 0.00 0.00 0.00 0.01 0.01 0.01 0.01 0.01 0.03 0.06 0.09 0.10 0.14 0.26 0.33 0.34 0.34 0.24 0.24 0.36 0.49 0.57 0.59 0.60 0.81 0.82 0.88 0.92 0.98 1.05 1.04 0.90
0.00 0.00 0.00 0.00 0.00 0.00 0.00 0.00 0.00 0.00 0.00 0.00 0.00 0.00 0.00 0.01 0.01 0.02 0.01 0.00 0.01 0.02 0.05 0.10 0.13 0.14 0.14 0.13 0.13 0.19 0.26 0.34 0.46 0.54 0.58 0.56 0.68 0.69 0.77 0.87 0.91 1.07 0.93
0.00 0.00 0.00 0.00 0.00 0.00 0.00 0.00 0.00 0.00 0.00 0.00 0.00 0.00 0.01 0.01 0.01 0.02 0.01 0.01 0.00 0.01 0.02 0.05 0.09 0.07 0.06 0.05 0.06 0.08 0.12 0.19 0.28 0.36 0.48 0.47 0.53 0.58 0.66 0.67 0.82 0.95 0.89
0.00 0.00 0.00 0.00 0.00 0.00 0.00 0.00 0.00 0.00 0.00 0.00 0.01 0.00 0.00 0.01 0.00 0.01 0.01 0.01 0.01 0.01 0.02 0.03 0.06 0.07 0.08 0.07 0.06 0.06 0.08 0.13 0.18 0.21 0.36 0.43 0.48 0.48 0.49 0.61 0.76 0.79 0.82
0.00 0.00 0.00 0.00 0.00 0.00 0.00 0.00 0.00 0.00 0.00 0.00 0.00 0.00 0.00 0.01 0.00 0.01 0.00 0.01 0.01 0.01 0.01 0.02 0.04 0.08 0.10 0.07 0.05 0.08 0.10 0.13 0.15 0.18 0.31 0.43 0.50 0.48 0.47 0.54 0.65 0.69 0.80
0.00 0.00 0.00 0.00 0.00 0.00 0.00 0.00 0.00 0.00 0.00 0.00 0.00 0.00 0.00 0.01 0.01 0.01 0.00 0.00 0.00 0.01 0.01 0.01 0.03 0.03 0.04 0.03 0.04 0.08 0.11 0.13 0.14 0.23 0.41 0.56 0.57 0.57 0.52 0.54 0.62 0.60 0.58
0.00 0.00 0.00 0.00 0.00 0.00 0.00 0.00 0.00 0.00 0.00 0.00 0.00 0.00 0.00 0.01 0.01 0.01 0.01 0.00 0.01 0.01 0.01 0.01 0.02 0.02 0.02 0.03 0.06 0.11 0.14 0.16 0.23 0.40 0.60 0.71 0.78 0.76 0.67 0.62 0.60 0.54 0.51